Lid_Strength_Index
3 2 2 1 1 2 3 5 10 4 4 9 9 12 10 7 8 7 8 9 10 11 11 12 13 12 10 7 8 12 11 13 16 14 11 10 12 14 14 17 18 18 18 17
2 1 1 1 1 1 3 7 8 4 3 12 12 9 9 8 9 9 9 10 9 9 11 13 12 11 9 7 9 11 11 14 18 17 14 12 13 12 13 13 15 18 19 17
1 0 0 0 0 0 3 6 10 7 6 7 10 11 11 11 8 9 8 9 9 10 11 11 12 11 9 8 8 7 8 13 16 18 17 13 15 13 12 14 17 17 17 16
0 -0 -0 -0 -0 0 3 6 9 7 11 10 9 9 10 11 11 8 8 10 9 11 13 12 12 11 10 9 8 10 11 15 15 14 12 12 13 13 13 14 14 16 15 14
0 0 0 -0 0 0 3 7 8 7 9 8 10 10 10 10 10 10 10 11 10 10 12 12 13 12 12 12 10 11 11 15 15 16 12 13 14 13 13 13 13 13 13 13
0 0 -0 -0 0 1 4 4 3 6 8 9 11 11 10 10 9 8 8 9 10 11 10 10 10 10 10 10 11 12 13 13 15 17 14 14 17 14 13 13 12 12 15 12
0 0 -0 -0 -0 1 3 4 4 8 11 10 10 9 9 9 9 10 9 8 10 8 8 9 10 10 10 9 11 10 13 14 16 18 16 20 15 11 10 12 10 10 10 10
1 0 -0 -0 -0 0 4 4 4 7 11 9 9 9 9 9 8 9 9 9 8 8 10 13 14 13 13 12 11 11 12 15 16 20 19 16 13 11 12 13 13 10 10 10
1 0 0 0 0 0 5 4 2 4 9 10 7 9 8 10 10 10 9 8 8 9 11 13 16 17 14 15 13 10 11 13 17 15 18 21 14 10 8 9 15 9 9 9
1 0 0 0 0 1 3 4 2 4 8 7 6 9 10 8 10 11 10 9 10 10 13 16 16 15 12 16 16 14 14 15 16 16 17 15 11 8 7 16 15 9 8 8
1 1 0 0 0 1 2 5 3 4 6 6 5 5 7 7 9 11 10 11 10 12 15 15 15 15 15 15 12 13 14 15 16 15 17 18 8 9 13 11 9 8 8 7
1 1 1 1 1 1 2 6 3 3 5 7 6 4 4 5 5 8 10 11 10 10 14 14 14 16 16 15 18 10 15 13 15 13 14 11 8 9 8 8 8 7 8 7
1 1 1 1 1 1 2 5 5 5 9 10 9 8 5 4 4 5 10 9 8 9 10 12 14 16 15 19 16 14 13 11 12 12 11 10 9 7 6 6 7 7 6 6
1 1 1 1 1 1 1 5 4 5 9 11 10 5 7 4 5 5 6 7 8 9 10 12 14 17 14 16 15 15 13 13 14 13 11 10 8 7 6 6 6 6 6 7
1 1 1 1 1 1 4 4 3 4 6 10 11 8 7 5 6 6 6 7 9 11 12 13 15 14 14 15 15 16 13 14 15 15 11 10 9 7 6 6 7 7 8 8
1 0 1 1 1 2 5 7 3 3 3 8 12 9 8 5 5 6 6 7 9 10 12 12 12 10 12 14 16 13 12 10 10 10 8 8 7 7 6 7 7 7 8 9
1 1 1 1 1 6 8 7 5 2 3 8 11 11 5 4 4 5 6 6 7 9 9 10 10 10 9 11 14 12 10 9 8 7 8 8 8 9 8 8 8 8 9 10
1 0 1 1 2 4 8 4 2 2 6 7 12 11 8 4 7 8 6 7 8 9 9 10 12 10 11 13 11 10 8 7 8 7 7 8 7 8 8 8 9 10 11 11
1 0 0 2 4 5 4 1 2 3 6 10 10 11 12 5 7 7 7 7 10 7 10 9 9 10 13 12 11 10 8 8 7 7 7 9 10 9 9 10 11 11 11 11
1 3 5 7 5 1 2 4 6 7 7 7 10 10 10 7 9 10 8 8 10 13 11 8 11 13 10 10 9 9 8 5 5 7 9 8 9 9 9 10 10 11 11 12
3 6 7 4 2 4 6 8 9 8 10 8 8 9 9 6 10 10 8 12 11 15 13 12 12 12 10 6 8 6 7 5 6 7 8 9 9 9 10 10 10 11 11 13
5 5 4 4 6 8 10 11 9 10 11 10 10 9 9 7 7 10 8 12 11 13 9 11 14 10 7 7 9 8 7 7 7 7 8 8 9 10 10 11 11 12 13 14
4 6 8 9 9 13 13 14 12 11 10 9 10 12 9 9 9 11 10 12 12 9 12 13 11 8 7 8 8 7 7 8 9 9 9 9 10 10 11 12 12 14 15 15
7 9 12 12 12 12 11 11 9 7 7 7 7 10 10 11 12 13 14 12 11 13 15 14 10 8 8 7 7 8 9 9 10 10 11 11 12 13 12 12 13 14 15 16
8 9 13 12 9 8 9 8 8 6 6 7 9 9 9 13 12 12 13 12 14 13 14 10 9 8 7 8 8 9 9 10 10 11 12 12 12 13 13 13 14 14 15 16
7 9 11 10 9 9 8 7 7 6 7 6 7 10 12 12 12 12 13 13 14 12 9 9 9 7 9 9 8 9 9 10 9 10 11 11 12 14 14 13 13 15 15 17
9 11 9 9 9 9 7 7 6 6 7 9 9 12 12 10 12 13 11 12 11 10 10 9 9 9 9 9 8 8 8 9 9 10 10 11 12 13 14 14 14 14 15 16